When you browse on this site, cookies collect data to enhance your experience and personalize the content and advertising you see.
Visit our Privacy Policy to learn more. By continuing to use the site, you agree to this use of cookies and data.
EN

Hourly Weather Boykivske (Telmanovo)

Today, 14 July, Tuesday

Time Temperature Precipitation Wind Pressure Humidity
00:00 +20°C° 1.8 mm 3 mps 742 mmHg 92%
01:00 +20°C° 1.3 mm 3 mps 742 mmHg 92%
02:00 +20°C° 1.3 mm 3 mps 741 mmHg 92%
03:00 +20°C° 0 mm 3 mps 742 mmHg 90%
04:00 +20°C° 0.1 mm 3 mps 742 mmHg 90%
05:00 +20°C° 0.1 mm 3 mps 742 mmHg 89%
06:00 +20°C° 0.1 mm 2 mps 742 mmHg 89%
07:00 +20°C° 0 mm 3 mps 742 mmHg 85%
08:00 +21°C° 0 mm 4 mps 743 mmHg 81%
09:00 +22°C° 0 mm 4 mps 743 mmHg 77%
10:00 +23°C° 0 mm 5 mps 743 mmHg 72%
11:00 +23°C° 0 mm 5 mps 744 mmHg 67%
12:00 +25°C° 0 mm 5 mps 744 mmHg 62%
13:00 +24°C° 0 mm 6 mps 744 mmHg 61%
14:00 +24°C° 0 mm 6 mps 744 mmHg 60%
15:00 +24°C° 0 mm 6 mps 744 mmHg 59%
16:00 +24°C° 0.1 mm 6 mps 745 mmHg 61%
17:00 +23°C° 0.1 mm 6 mps 745 mmHg 62%
18:00 +23°C° 0.1 mm 6 mps 745 mmHg 63%
19:00 +21°C° 0.1 mm 6 mps 745 mmHg 68%
20:00 +20°C° 0.1 mm 5 mps 746 mmHg 73%
21:00 +18°C° 0.1 mm 4 mps 746 mmHg 77%
22:00 +17°C° 0 mm 4 mps 746 mmHg 79%
23:00 +17°C° 0 mm 4 mps 747 mmHg 81%

Tomorrow, 15 July, Wednesday

Time Temperature Precipitation Wind Pressure Humidity
00:00 +15°C° 0 mm 4 mps 747 mmHg 83%
01:00 +15°C° 0 mm 4 mps 747 mmHg 84%
02:00 +14°C° 0 mm 4 mps 747 mmHg 85%
03:00 +14°C° 0 mm 4 mps 747 mmHg 86%
04:00 +14°C° 0 mm 4 mps 748 mmHg 86%
05:00 +14°C° 0 mm 4 mps 748 mmHg 85%
06:00 +14°C° 0 mm 4 mps 748 mmHg 85%
07:00 +17°C° 0 mm 4 mps 749 mmHg 79%
08:00 +18°C° 0 mm 4 mps 749 mmHg 74%
09:00 +19°C° 0 mm 4 mps 750 mmHg 68%
10:00 +20°C° 0 mm 4 mps 750 mmHg 65%
11:00 +21°C° 0 mm 4 mps 750 mmHg 62%
12:00 +22°C° 0 mm 4 mps 750 mmHg 58%
13:00 +23°C° 0 mm 4 mps 750 mmHg 54%
14:00 +25°C° 0 mm 4 mps 750 mmHg 49%
15:00 +26°C° 0 mm 4 mps 750 mmHg 44%
16:00 +26°C° 0 mm 4 mps 750 mmHg 44%
17:00 +26°C° 0 mm 4 mps 750 mmHg 44%
18:00 +25°C° 0 mm 4 mps 750 mmHg 43%
19:00 +24°C° 0 mm 3 mps 750 mmHg 49%
20:00 +21°C° 0 mm 2 mps 750 mmHg 54%
21:00 +20°C° 0 mm 2 mps 751 mmHg 59%
22:00 +19°C° 0 mm 2 mps 750 mmHg 62%
23:00 +18°C° 0 mm 2 mps 750 mmHg 64%

Day after tomorrow, 16 July, Thursday

Time Temperature Precipitation Wind Pressure Humidity
00:00 +18°C° 0 mm 2 mps 750 mmHg 66%
01:00 +18°C° 0 mm 2 mps 750 mmHg 68%
02:00 +17°C° 0 mm 2 mps 750 mmHg 69%
03:00 +17°C° 0 mm 2 mps 750 mmHg 70%
04:00 +17°C° 0 mm 2 mps 750 mmHg 70%
05:00 +17°C° 0 mm 2 mps 750 mmHg 70%
06:00 +19°C° 0 mm 1 mps 750 mmHg 69%
07:00 +21°C° 0 mm 1 mps 750 mmHg 61%
08:00 +23°C° 0 mm 1 mps 750 mmHg 54%
09:00 +25°C° 0 mm 1 mps 750 mmHg 46%
10:00 +26°C° 0 mm 1 mps 750 mmHg 42%
11:00 +27°C° 0 mm 1 mps 750 mmHg 39%
12:00 +28°C° 0 mm 2 mps 750 mmHg 35%
13:00 +28°C° 0 mm 2 mps 750 mmHg 36%
14:00 +28°C° 0 mm 2 mps 749 mmHg 36%
15:00 +28°C° 0 mm 3 mps 749 mmHg 37%
16:00 +28°C° 0 mm 2 mps 749 mmHg 38%
17:00 +27°C° 0 mm 2 mps 749 mmHg 39%
18:00 +27°C° 0 mm 2 mps 748 mmHg 41%
19:00 +26°C° 0 mm 2 mps 749 mmHg 45%
20:00 +24°C° 0 mm 2 mps 749 mmHg 50%
21:00 +23°C° 0 mm 2 mps 749 mmHg 55%
22:00 +21°C° 0 mm 2 mps 749 mmHg 57%
23:00 +20°C° 0 mm 3 mps 749 mmHg 59%

17 July, Friday

Time Temperature Precipitation Wind Pressure Humidity
00:00 +20°C° 0 mm 3 mps 748 mmHg 61%
01:00 +19°C° 0 mm 3 mps 748 mmHg 62%
02:00 +19°C° 0 mm 3 mps 748 mmHg 63%
03:00 +19°C° 0 mm 3 mps 748 mmHg 64%
04:00 +19°C° 0 mm 3 mps 748 mmHg 64%
05:00 +19°C° 0 mm 3 mps 748 mmHg 64%
06:00 +19°C° 0 mm 3 mps 748 mmHg 65%
07:00 +21°C° 0 mm 3 mps 748 mmHg 60%
08:00 +22°C° 0 mm 3 mps 749 mmHg 55%
09:00 +25°C° 0 mm 4 mps 749 mmHg 50%
10:00 +26°C° 0 mm 3 mps 749 mmHg 46%
11:00 +27°C° 0 mm 3 mps 749 mmHg 42%
12:00 +28°C° 0 mm 3 mps 749 mmHg 38%
13:00 +29°C° 0 mm 3 mps 749 mmHg 36%
14:00 +29°C° 0 mm 2 mps 749 mmHg 34%
15:00 +30°C° 0 mm 2 mps 748 mmHg 32%
16:00 +29°C° 0 mm 2 mps 748 mmHg 34%
17:00 +29°C° 0 mm 2 mps 748 mmHg 35%
18:00 +29°C° 0 mm 2 mps 748 mmHg 37%
19:00 +27°C° 0 mm 3 mps 749 mmHg 41%
20:00 +26°C° 0 mm 3 mps 749 mmHg 46%
21:00 +23°C° 0 mm 4 mps 749 mmHg 50%
22:00 +22°C° 0 mm 4 mps 749 mmHg 52%
23:00 +21°C° 0 mm 4 mps 749 mmHg 53%

18 July, Saturday

Time Temperature Precipitation Wind Pressure Humidity
00:00 +20°C° 0 mm 4 mps 749 mmHg 54%
01:00 +20°C° 0 mm 4 mps 749 mmHg 54%
02:00 +19°C° 0 mm 4 mps 749 mmHg 54%
03:00 +19°C° 0 mm 4 mps 749 mmHg 54%
04:00 +19°C° 0 mm 4 mps 749 mmHg 55%
05:00 +19°C° 0 mm 4 mps 750 mmHg 57%
06:00 +19°C° 0 mm 4 mps 750 mmHg 58%
07:00 +21°C° 0 mm 4 mps 750 mmHg 53%
08:00 +23°C° 0 mm 4 mps 750 mmHg 48%
09:00 +26°C° 0 mm 4 mps 750 mmHg 43%
10:00 +28°C° 0 mm 4 mps 750 mmHg 39%
11:00 +29°C° 0 mm 4 mps 750 mmHg 36%
12:00 +30°C° 0 mm 4 mps 750 mmHg 33%
13:00 +32°C° 0 mm 4 mps 750 mmHg 32%
14:00 +33°C° 0 mm 4 mps 750 mmHg 32%
15:00 +33°C° 0 mm 4 mps 750 mmHg 31%
16:00 +33°C° 0 mm 4 mps 749 mmHg 32%
17:00 +33°C° 0 mm 4 mps 749 mmHg 33%
18:00 +32°C° 0 mm 4 mps 749 mmHg 35%
19:00 +30°C° 0 mm 4 mps 749 mmHg 39%
20:00 +28°C° 0 mm 4 mps 749 mmHg 43%
21:00 +26°C° 0 mm 4 mps 749 mmHg 48%
22:00 +25°C° 0 mm 4 mps 749 mmHg 48%
23:00 +25°C° 0 mm 5 mps 749 mmHg 48%

19 July, Sunday

Time Temperature Precipitation Wind Pressure Humidity
00:00 +23°C° 0 mm 5 mps 749 mmHg 48%
01:00 +23°C° 0 mm 5 mps 749 mmHg 49%
02:00 +22°C° 0 mm 5 mps 749 mmHg 50%
03:00 +22°C° 0 mm 5 mps 749 mmHg 50%
04:00 +22°C° 0 mm 5 mps 749 mmHg 51%
05:00 +21°C° 0 mm 5 mps 749 mmHg 51%
06:00 +21°C° 0 mm 5 mps 749 mmHg 52%
07:00 +23°C° 0 mm 6 mps 749 mmHg 47%
08:00 +26°C° 0 mm 6 mps 749 mmHg 43%
09:00 +28°C° 0 mm 7 mps 748 mmHg 38%
10:00 +30°C° 0 mm 6 mps 748 mmHg 35%
11:00 +33°C° 0 mm 6 mps 748 mmHg 32%
12:00 +35°C° 0 mm 6 mps 748 mmHg 29%
13:00 +35°C° 0 mm 6 mps 747 mmHg 28%
14:00 +36°C° 0 mm 5 mps 747 mmHg 27%
15:00 +36°C° 0 mm 5 mps 746 mmHg 26%
16:00 +36°C° 0 mm 5 mps 746 mmHg 27%
17:00 +35°C° 0 mm 5 mps 746 mmHg 29%
18:00 +35°C° 0 mm 4 mps 745 mmHg 30%
19:00 +33°C° 0 mm 5 mps 745 mmHg 33%
20:00 +32°C° 0 mm 6 mps 745 mmHg 36%
21:00 +29°C° 0 mm 7 mps 745 mmHg 40%
22:00 +28°C° 0 mm 7 mps 745 mmHg 41%
23:00 +28°C° 0 mm 6 mps 745 mmHg 42%
Show more